TimeEST,TemperatureF,Dew PointF,Humidity,Sea Level PressureIn,VisibilityMPH,Wind Direction,Wind SpeedMPH,Gust SpeedMPH,PrecipitationIn,Events,Conditions,WindDirDegrees,DateUTC
12:53 AM,60.1,57.0,90,30.08,10.0,NNW,8.1,-,N/A,,Clear,330,2012-11-25 05:53:00
1:53 AM,57.9,54.0,87,30.08,10.0,NNW,5.8,-,N/A,,Clear,330,2012-11-25 06:53:00
2:53 AM,57.0,53.1,87,30.07,10.0,NNW,5.8,-,N/A,,Clear,330,2012-11-25 07:53:00
3:53 AM,55.9,51.1,84,30.07,10.0,NNW,8.1,-,N/A,,Clear,330,2012-11-25 08:53:00
4:53 AM,50.0,48.9,96,30.07,10.0,WNW,4.6,-,N/A,,Clear,300,2012-11-25 09:53:00
5:53 AM,50.0,48.9,96,30.09,10.0,NNW,4.6,-,N/A,,Clear,330,2012-11-25 10:53:00
6:53 AM,50.0,50.0,100,30.09,9.0,Calm,Calm,-,N/A,,Clear,0,2012-11-25 11:53:00
7:53 AM,55.0,53.1,93,30.12,10.0,WNW,3.5,-,N/A,,Clear,290,2012-11-25 12:53:00
8:53 AM,62.1,54.0,75,30.13,10.0,NNW,4.6,-,N/A,,Clear,330,2012-11-25 13:53:00
9:53 AM,64.9,55.0,70,30.14,10.0,NNW,3.5,-,N/A,,Clear,330,2012-11-25 14:53:00
10:53 AM,70.0,55.0,59,30.14,10.0,WNW,5.8,-,N/A,,Clear,300,2012-11-25 15:53:00
11:53 AM,73.0,55.9,55,30.13,10.0,Variable,6.9,-,N/A,,Clear,0,2012-11-25 16:53:00
12:53 PM,73.9,53.1,48,30.10,10.0,NW,5.8,-,N/A,,Clear,320,2012-11-25 17:53:00
1:53 PM,75.9,50.0,40,30.08,10.0,NNW,4.6,-,N/A,,Clear,330,2012-11-25 18:53:00
2:53 PM,75.9,48.9,38,30.07,10.0,Calm,Calm,-,N/A,,Clear,0,2012-11-25 19:53:00
3:53 PM,75.0,48.9,40,30.07,10.0,Calm,Calm,-,N/A,,Clear,0,2012-11-25 20:53:00
4:53 PM,72.0,54.0,53,30.08,10.0,ESE,5.8,-,N/A,,Clear,110,2012-11-25 21:53:00
5:53 PM,69.1,55.0,61,30.09,10.0,ESE,3.5,-,N/A,,Clear,120,2012-11-25 22:53:00
6:53 PM,64.9,55.0,70,30.11,10.0,Calm,Calm,-,N/A,,Clear,0,2012-11-25 23:53:00
7:53 PM,60.1,55.0,83,30.13,10.0,Calm,Calm,-,N/A,,Clear,0,2012-11-26 00:53:00
8:53 PM,59.0,55.0,87,30.14,10.0,Calm,Calm,-,N/A,,Clear,0,2012-11-26 01:53:00
9:53 PM,59.0,55.0,87,30.14,10.0,Calm,Calm,-,N/A,,Clear,0,2012-11-26 02:53:00
10:53 PM,57.9,55.0,90,30.14,10.0,Calm,Calm,-,N/A,,Clear,0,2012-11-26 03:53:00
11:53 PM,55.9,54.0,93,30.14,9.0,Calm,Calm,-,N/A,,Clear,0,2012-11-26 04:53:00